Wind_Speed
33 33 33 33 34 35 36 37 38 39 40 41 41 42 42 42 43 44 46 46 48 49 49 50 50 51 51 51 49 47 45 45 44 42 39 37 36 35 34 32 32 30 29
38 38 39 39 39 39 38 38 39 40 42 43 44 45 46 47 48 49 49 49 49 49 50 50 49 51 51 52 52 50 48 46 46 45 43 40 39 36 35 34 33 32 30
42 44 45 46 46 45 45 45 45 46 47 49 50 51 52 53 54 54 53 53 53 52 52 52 51 52 51 51 51 51 50 48 48 47 46 44 42 40 37 36 35 34 32
42 44 46 48 49 49 50 53 56 57 58 60 61 62 62 63 62 62 61 60 60 59 57 56 55 55 55 55 54 53 54 52 51 50 50 48 46 43 40 38 36 35 34
45 47 49 50 51 54 57 59 61 63 63 65 65 65 65 66 65 64 65 65 65 67 66 65 64 61 61 60 59 58 57 56 55 54 54 53 50 47 43 40 37 36 36
47 50 52 52 55 59 61 61 62 62 62 64 65 64 65 67 68 65 63 59 59 62 64 66 69 70 69 68 64 62 61 61 60 59 57 55 52 47 45 43 40 40 39
51 54 56 59 62 63 64 65 64 65 66 69 70 70 69 68 71 71 67 67 67 70 71 69 70 68 68 71 70 68 65 63 62 62 60 58 55 52 47 45 42 41 41
54 59 62 64 67 68 70 72 73 75 76 79 81 82 82 80 80 81 83 83 79 79 79 80 80 76 72 71 71 66 65 67 65 64 62 61 59 57 53 50 46 43 42
59 64 67 70 73 76 78 81 82 84 85 86 87 87 88 88 87 85 84 82 81 81 80 79 75 74 75 74 75 75 72 66 66 67 69 67 64 60 56 52 49 47 45
67 70 73 75 78 79 80 80 81 82 83 82 79 78 78 78 78 79 77 75 70 66 64 61 62 63 67 72 73 73 75 73 73 74 72 72 70 67 62 59 58 55 52
74 76 78 79 80 80 78 76 75 74 73 72 69 67 67 64 63 64 64 59 59 57 56 54 51 51 57 65 68 70 74 75 77 78 77 74 74 73 70 67 68 64 62
77 79 80 81 80 78 75 73 69 67 66 64 64 64 64 64 62 61 61 56 58 60 61 58 54 50 47 51 56 62 66 71 73 78 79 79 78 79 79 76 71 69 71
80 81 82 82 80 76 70 66 63 63 64 64 64 63 64 64 64 64 66 64 60 56 55 53 51 50 49 51 49 50 55 58 62 67 74 77 79 80 82 84 81 76 75
83 83 81 80 76 68 65 64 62 60 58 58 57 56 56 58 60 61 59 55 50 50 50 50 50 48 48 49 46 43 43 42 43 48 57 64 69 72 74 77 76 74 74
83 80 76 68 61 59 58 55 51 48 47 46 44 42 41 41 42 42 41 39 39 40 40 38 39 40 41 40 38 36 34 32 32 33 39 46 52 60 67 68 68 66 63
76 67 58 54 51 51 50 48 44 41 40 38 35 33 32 32 31 30 30 30 31 29 25 22 25 28 28 29 32 29 26 28 27 27 29 32 36 42 49 54 58 58 58
54 49 47 46 45 44 43 42 40 39 37 35 32 30 28 26 25 25 24 24 24 22 21 18 19 20 21 22 21 19 22 24 23 25 25 24 25 28 33 40 48 53 54
42 42 41 39 37 36 35 35 34 35 36 35 33 30 27 25 26 27 26 24 24 20 17 17 13 12 14 15 15 18 21 16 21 21 19 21 26 27 30 42 47 47 45
35 33 32 33 35 35 34 33 33 34 34 33 31 29 27 25 25 21 18 17 18 19 17 17 14 14 15 14 16 16 15 17 17 17 18 21 19 17 9 20 23 26 28
27 29 31 31 30 27 25 25 26 25 23 24 22 20 19 18 16 16 18 16 14 14 14 17 19 16 19 19 19 17 15 13 13 14 14 11 10 11 25 24 27 25 25
23 23 22 22 22 20 21 23 21 18 17 16 15 13 13 14 14 15 17 16 15 14 13 14 19 19 16 16 18 19 17 12 12 10 12 12 6 18 26 28 32 36 30
21 21 23 24 25 24 23 22 21 20 17 14 13 12 12 13 12 14 16 14 14 12 12 12 13 9 11 17 20 20 18 15 13 10 15 12 10 18 21 23 30 35 32
26 26 27 27 27 27 26 23 21 20 18 15 14 13 11 10 12 14 11 7 8 12 11 12 12 10 9 14 18 17 13 13 13 12 13 11 14 23 28 24 26 32 28
27 28 28 28 27 27 26 24 22 20 18 15 15 13 11 11 9 9 2 4 6 11 13 13 14 15 16 18 17 17 18 17 15 13 14 13 16 26 29 24 22 28 27
29 28 28 28 28 27 26 26 25 22 19 16 13 11 11 8 6 2 3 5 9 10 12 17 17 16 17 17 15 18 22 17 14 14 14 14 16 27 32 26 21 26 24
33 31 30 28 26 25 23 23 23 21 18 16 13 10 9 5 7 4 3 3 5 2 5 21 21 19 18 16 16 23 25 20 16 15 16 15 22 30 30 28 25 20 18
Wind_Direction
284 284 283 282 281 281 280 280 280 279 278 278 278 277 276 275 274 273 272 271 271 271 271 272 272 273 274 274 273 271 269 269 270 270 269 265 262 261 261 263 265 267 267
280 280 280 281 281 282 283 284 284 284 285 283 282 281 280 278 276 273 271 270 269 269 268 267 267 267 268 269 270 269 269 268 268 268 267 265 262 261 261 260 260 262 263
283 284 284 284 284 286 287 287 287 285 284 284 283 281 279 277 276 273 271 268 267 265 265 265 264 263 262 262 263 265 267 266 265 264 264 263 261 260 259 260 259 260 261
281 281 283 284 283 284 286 287 288 287 286 285 285 285 284 281 280 278 275 272 270 269 267 265 265 265 263 260 259 260 261 262 263 262 261 260 258 258 258 258 259 260 261
284 284 285 285 286 288 289 289 288 286 285 285 284 284 283 282 280 279 278 276 274 271 270 269 266 266 265 263 261 259 258 258 258 259 260 259 256 256 256 257 261 262 264
287 290 291 291 294 295 294 291 289 287 285 282 280 279 280 279 277 274 273 271 273 275 274 272 270 269 266 264 263 261 259 258 258 259 258 257 254 253 255 258 259 261 263
290 294 293 295 296 296 295 293 290 288 284 281 278 277 277 277 276 274 273 272 271 278 277 274 274 274 271 269 266 262 259 256 256 255 253 251 250 250 252 257 259 262 265
291 293 295 296 297 298 296 293 291 288 286 285 283 279 278 277 279 279 279 279 277 276 276 276 272 271 268 267 266 262 258 254 252 251 250 251 249 248 249 250 256 262 265
295 297 298 298 297 295 294 293 292 291 289 288 288 287 285 283 282 281 281 282 282 280 278 276 272 268 264 263 263 264 262 256 257 256 252 251 253 253 253 254 255 259 263
297 297 296 296 296 295 295 295 293 291 290 289 288 287 287 286 284 282 279 279 280 281 280 277 272 267 263 262 262 262 263 262 259 258 256 254 254 252 253 257 258 256 260
296 297 298 299 299 300 299 296 294 292 290 289 288 288 287 287 286 284 281 278 277 279 280 277 274 269 261 256 256 259 262 261 260 261 258 255 254 251 254 257 261 260 260
296 298 300 300 299 299 298 297 295 294 292 290 289 288 288 288 288 284 283 286 283 281 278 276 272 268 266 263 259 255 254 255 257 260 259 257 255 254 256 258 259 259 259
298 299 299 298 298 299 298 296 296 295 293 292 291 289 288 287 285 284 284 285 283 279 276 278 275 269 266 265 265 264 259 256 254 254 255 255 254 255 256 256 257 258 260
299 298 298 297 297 296 296 296 297 297 296 294 293 292 289 286 285 284 284 283 282 279 277 278 276 272 267 266 269 271 269 263 256 250 248 248 249 251 251 252 253 253 254
298 298 299 299 297 298 299 300 300 298 298 297 297 295 293 291 289 286 285 285 285 284 281 277 275 271 266 267 270 268 267 264 263 256 247 244 245 245 245 245 246 247 245
299 299 298 298 298 298 298 298 300 300 298 297 296 296 295 293 293 290 288 288 289 289 288 286 275 266 261 262 264 261 263 263 257 255 251 249 247 244 242 240 239 238 238
297 296 296 297 298 299 299 299 298 298 300 300 299 298 296 296 297 297 297 294 289 286 285 286 278 264 255 256 257 250 249 246 250 256 252 248 247 242 238 238 237 236 237
297 297 300 302 305 306 304 302 300 300 301 300 298 297 299 299 300 298 295 292 290 287 282 273 269 253 249 252 243 237 244 251 257 258 250 247 248 240 238 235 230 227 226
300 303 306 308 310 309 306 302 301 302 302 301 297 290 290 299 305 305 305 292 283 277 271 260 247 241 238 241 237 235 238 247 247 247 252 261 256 250 222 208 210 204 199
305 308 312 316 319 320 320 317 312 310 311 309 303 293 286 293 304 307 305 297 275 264 266 243 239 255 254 238 225 215 209 226 239 247 244 224 222 192 160 160 169 175 179
320 324 330 333 335 336 337 339 333 324 323 326 317 301 290 291 298 306 317 313 285 263 259 250 246 260 256 215 204 199 202 226 242 240 215 181 159 150 153 154 170 182 176
327 324 321 320 318 316 317 320 326 330 323 320 316 307 298 295 289 294 293 294 280 246 249 242 234 237 227 197 197 199 199 223 235 214 194 179 169 166 161 161 169 178 186
324 318 313 311 309 308 308 308 308 313 321 319 310 304 299 293 294 298 292 285 246 220 232 242 224 216 212 185 184 186 192 199 194 200 188 154 146 170 178 186 180 175 168
320 317 315 314 313 311 310 309 306 301 298 308 313 310 294 289 302 312 305 330 291 255 251 226 200 186 174 173 179 186 188 187 188 189 195 184 161 173 170 167 170 181 190
324 319 316 315 314 311 307 303 299 297 288 282 293 304 307 283 259 297 331 328 314 290 262 209 190 180 176 177 181 187 184 185 187 185 196 195 167 167 174 183 173 171 176
328 323 320 318 314 311 310 305 296 288 282 273 270 281 302 268 222 236 278 325 354 357 189 178 174 168 170 182 182 177 178 183 186 180 191 186 164 158 160 161 161 163 166
Height
5840 5839 5837 5835 5833 5831 5829 5827 5824 5822 5821 5819 5817 5815 5813 5811 5810 5810 5810 5808 5808 5807 5806 5805 5804 5804 5804 5804 5805 5805 5806 5808 5808 5809 5809 5810 5811 5811 5813 5815 5818 5820 5822
5833 5831 5829 5826 5824 5822 5819 5816 5815 5813 5812 5810 5807 5805 5803 5801 5801 5800 5798 5797 5796 5795 5794 5793 5792 5792 5792 5792 5792 5793 5795 5796 5797 5798 5800 5801 5802 5803 5805 5806 5809 5812 5814
5828 5826 5823 5820 5817 5814 5811 5808 5805 5803 5800 5798 5796 5794 5792 5791 5790 5788 5787 5785 5783 5782 5781 5780 5779 5779 5778 5779 5780 5782 5783 5785 5787 5787 5788 5791 5793 5795 5796 5798 5800 5803 5805
5822 5819 5817 5814 5811 5807 5804 5801 5797 5794 5790 5786 5783 5781 5778 5776 5776 5774 5773 5773 5770 5769 5767 5766 5765 5764 5765 5766 5768 5769 5771 5773 5775 5777 5778 5780 5782 5784 5786 5788 5790 5793 5796
5813 5810 5808 5804 5801 5798 5795 5791 5788 5783 5778 5774 5771 5768 5765 5761 5760 5758 5755 5755 5754 5753 5751 5749 5749 5750 5750 5753 5755 5756 5758 5760 5762 5765 5768 5770 5772 5773 5775 5777 5780 5784 5786
5803 5800 5797 5795 5792 5788 5783 5779 5774 5770 5765 5761 5758 5756 5753 5749 5745 5743 5741 5740 5738 5737 5736 5733 5732 5733 5734 5737 5739 5741 5743 5745 5748 5751 5755 5758 5761 5763 5765 5767 5770 5773 5776
5793 5791 5788 5784 5781 5775 5770 5764 5759 5754 5750 5745 5741 5740 5739 5736 5731 5726 5726 5725 5725 5722 5718 5717 5716 5717 5716 5718 5721 5724 5728 5730 5733 5736 5740 5744 5748 5751 5753 5756 5759 5762 5765
5783 5779 5775 5769 5764 5757 5751 5746 5741 5736 5731 5724 5718 5716 5717 5717 5712 5707 5704 5701 5703 5703 5700 5698 5697 5698 5699 5700 5700 5705 5710 5714 5718 5721 5725 5729 5734 5738 5741 5744 5747 5750 5753
5768 5763 5758 5752 5747 5740 5733 5725 5719 5711 5707 5703 5695 5690 5687 5689 5686 5684 5682 5680 5678 5677 5675 5674 5674 5675 5677 5679 5681 5684 5688 5694 5699 5703 5708 5712 5718 5723 5728 5732 5735 5738 5742
5753 5748 5742 5736 5729 5721 5713 5706 5699 5691 5684 5679 5674 5667 5662 5662 5659 5657 5659 5658 5657 5654 5651 5649 5648 5650 5652 5655 5658 5662 5666 5671 5676 5683 5689 5694 5700 5706 5711 5716 5722 5726 5730
5737 5731 5724 5717 5709 5702 5694 5687 5679 5671 5664 5658 5655 5649 5643 5642 5639 5633 5635 5640 5639 5636 5633 5630 5629 5630 5631 5632 5634 5638 5644 5648 5652 5659 5666 5673 5681 5687 5693 5698 5705 5712 5717
5722 5715 5707 5699 5691 5684 5675 5667 5660 5653 5647 5642 5637 5632 5626 5623 5622 5617 5614 5621 5619 5616 5611 5610 5612 5613 5615 5614 5614 5615 5619 5624 5629 5634 5641 5649 5657 5665 5673 5680 5686 5693 5701
5706 5697 5689 5680 5672 5664 5656 5649 5643 5637 5631 5626 5620 5615 5610 5606 5604 5601 5598 5600 5598 5596 5593 5593 5594 5596 5599 5598 5597 5597 5599 5605 5607 5610 5617 5625 5633 5642 5651 5659 5666 5672 5680
5687 5679 5670 5661 5653 5645 5639 5633 5628 5621 5614 5608 5603 5598 5594 5591 5587 5584 5581 5580 5579 5578 5578 5579 5578 5579 5581 5582 5582 5583 5582 5588 5589 5592 5595 5603 5612 5619 5626 5636 5644 5652 5662
5668 5659 5650 5642 5635 5629 5624 5618 5612 5606 5600 5595 5589 5584 5579 5576 5572 5570 5568 5567 5565 5564 5565 5566 5564 5564 5566 5569 5570 5569 5572 5575 5578 5579 5581 5585 5590 5597 5605 5614 5624 5634 5644
5648 5640 5633 5628 5622 5616 5610 5605 5599 5594 5590 5585 5580 5575 5571 5567 5563 5561 5559 5557 5556 5553 5552 5553 5553 5552 5556 5558 5558 5560 5564 5566 5566 5566 5568 5571 5575 5580 5587 5596 5608 5618 5628
5631 5626 5620 5615 5610 5604 5598 5593 5589 5585 5580 5575 5570 5566 5563 5559 5557 5554 5552 5550 5549 5547 5546 5547 5547 5547 5549 5551 5551 5554 5557 5558 5559 5560 5561 5563 5567 5572 5577 5585 5595 5605 5616
5618 5614 5610 5605 5600 5595 5590 5585 5580 5576 5571 5566 5562 5559 5555 5552 5549 5547 5545 5543 5542 5541 5541 5542 5543 5544 5545 5546 5548 5550 5551 5553 5554 5555 5556 5558 5562 5566 5571 5573 5582 5592 5602
5610 5605 5602 5597 5592 5586 5581 5576 5572 5566 5561 5556 5552 5550 5548 5546 5543 5540 5538 5536 5535 5535 5536 5538 5538 5539 5541 5544 5545 5547 5549 5551 5552 5554 5554 5554 5555 5557 5559 5564 5575 5584 5594
5603 5599 5594 5588 5583 5578 5573 5569 5564 5559 5554 5549 5546 5543 5541 5540 5538 5536 5534 5532 5530 5530 5531 5532 5533 5535 5537 5539 5541 5544 5547 5550 5551 5553 5554 5552 5551 5553 5558 5565 5575 5584 5596
5597 5593 5589 5584 5579 5574 5570 5565 5560 5555 5550 5545 5542 5539 5537 5536 5534 5532 5531 5528 5526 5526 5526 5527 5528 5530 5531 5534 5538 5542 5546 5549 5550 5552 5553 5553 5554 5555 5560 5568 5576 5585 5594
5593 5588 5584 5579 5574 5570 5565 5561 5557 5552 5547 5543 5540 5537 5535 5533 5532 5530 5528 5524 5522 5521 5522 5523 5524 5526 5528 5531 5536 5540 5545 5549 5550 5552 5553 5556 5560 5562 5566 5572 5582 5592 5598
5587 5583 5578 5573 5568 5563 5559 5555 5552 5548 5544 5540 5537 5535 5533 5531 5530 5527 5524 5521 5519 5518 5520 5521 5523 5525 5527 5530 5535 5540 5544 5548 5550 5552 5554 5557 5561 5566 5571 5575 5584 5593 5600
5583 5577 5572 5566 5561 5556 5552 5548 5545 5542 5540 5537 5534 5531 5529 5528 5527 5524 5521 5520 5518 5517 5517 5519 5521 5524 5527 5531 5535 5539 5543 5546 5550 5553 5555 5558 5562 5567 5574 5579 5586 5593 5599
5578 5571 5565 5559 5554 5549 5545 5541 5538 5536 5534 5532 5530 5527 5525 5524 5524 5522 5520 5518 5516 5515 5515 5517 5520 5524 5528 5531 5535 5539 5542 5547 5551 5553 5555 5558 5563 5569 5576 5582 5589 5594 5601
5572 5565 5559 5553 5548 5542 5538 5534 5531 5528 5527 5526 5524 5523 5522 5521 5521 5521 5519 5518 5516 5513 5512 5515 5520 5524 5527 5531 5533 5537 5542 5547 5551 5555 5558 5563 5567 5573 5579 5585 5592 5597 5602